Tracking 29892 objects as of 21-Nov-2024
HD Live streaming from Space Station
objects crossing your sky now

STARLINK-5947

Track STARLINK-5947 now!
10-day predictions
STARLINK-5947 is classified as:


NORAD ID: 55989
Int'l Code: 2023-042D
Perigee: 565.4 km
Apogee: 567.1 km
Inclination: 43.0 °
Period: 95.8 minutes
Semi major axis: 6937 km
RCS: Unknown
Launch date: March 24, 2022
Source: United States (US)
Launch site: AIR FORCE EASTERN TEST RANGE (AFETR)
Your satellite tracking list
Your tracking list is empty




NASA's NSSDC Master Catalog

Two Line Element Set (TLE):
1 55989U 23042D   24325.80723892  .00000623  00000-0  61155-4 0  9995
2 55989  43.0031 111.2733 0001221 286.7205  73.3503 15.02538249 91621
Source of the keplerian elements: AFSPC